Regional Weather Roundup
Issued by NWS New Orleans/Baton Rouge, LA

Home | Current Version | Previous Version | Graphics & Text | Print | Product List | Glossary On
Versions: 1 2 3 4 5 6 7 8 9 10 11 12 13 14 15 16 17 18 19 20 21 22 23 24 25 26 27 28 29 30 31 32 33 34 35 36 37 38 39 40 41 42 43 44 45 46 47 48 49 50
195
ASUS44 KLIX 191305
RWRLIX
NEW ORLEANS REGIONAL WEATHER ROUNDUP
NATIONAL WEATHER SERVICE NEW ORLEANS LA
800 AM CDT SAT APR 19 2014

NOTE: "FAIR" INDICATES FEW OR NO CLOUDS BELOW 12,000 FEET WITH NO
      SIGNIFICANT WEATHER AND/OR OBSTRUCTIONS TO VISIBILITY.
      SKY/WX - SKY CONDITION AND SIGNIFICANT WEATHER.
      TMP - AIR TEMPERATURE.     DP    - DEWPOINT TEMPERATURE.
      RH  - RELATIVE HUMIDITY.   PRES  - PRESSURE.
      HI  - HEAT INDEX.          WCI   - WIND CHILL INDEX.

*  THESE STATIONS ARE NOT NWS OR FAA STATIONS AND ARE NOT UNDER
   NWS QUALITY CONTROL.

LAZ038-040-048-061>063-065>067-069-191400-
SOUTHEAST LOUISIANA

CITY           SKY/WX    TMP DP  RH WIND       PRES   REMARKS
N.O. AUDUBON     N/A     61  54  76 MISG        N/A
N.O. INTL ARPT MOSUNNY   61  54  77 N10       30.15S
N.O. LAKEFRONT SUNNY     61  54  77 N14       30.16R
N.O. DOWNTOWN*   N/A     61  50  67 N6        30.15S
SLIDELL        SUNNY     57  52  83 N7        30.15R
BATON ROUGE    SUNNY     59  53  80 CALM      30.17R
BOOTHVILLE     SUNNY     61  55  81 N7        30.14S
BELLE CHASSE   MOSUNNY   60  53  77 NE3       30.14S
BOGALUSA*        N/A     56  52  85 N5        30.18R
GALLIANO*      SUNNY     59  56  89 N3        30.15S
NEW ROADS*       N/A     56  55  97 W3        30.18R
GONZALES*        N/A     57  56  94 NW3       30.16S
HAMMOND*       SUNNY     57  52  82 N5        30.17F
HOUMA*         SUNNY     59  54  82 N7        30.16R
PORT FOURCHON* SUNNY     61  55  82 N9        30.16R

$$

MSZ070-080>082-191400-
SOUTHERN MISSISSIPPI

CITY           SKY/WX    TMP DP  RH WIND       PRES   REMARKS
MCCOMB         SUNNY     56  51  84 NW6       30.18R
GULFPORT       SUNNY     59  51  75 N7        30.14R
BILOXI         SUNNY     58  52  80 N9        30.14R
PASCAGOULA     SUNNY     58  52  80 N8        30.12R

$$

COASTAL OBSERVATIONS
LAKE AND NEARSHORE STATIONS

STATION/POSITION TIME  TEMP    WIND        PRES    WAVE
                       AIR SEA DIR/SP/G            HT/PER
                 (UTC) (F)     (DEG/KT/KT) (MB)    (FT/S)
PASCAGOULA       1300   57     360/  8/ 11 1019.3
WAVELAND YACHT   1300   56 65  330/  7/  9 1020.0
GRAND ISLE       1300   61 66   10/  9/ 11 1021.3
SOUTHWEST PASS   1300   62 57  360/ 12/ 13 1020.6
NEW CANAL        1300   60 64   30/ 10/ 12 1021.2
SHELL BEACH      1300   59 62   10/ 14/ 15 1020.7

OFFSHORE STATIONS

STATION/POSITION TIME  TEMP    WIND        PRES    WAVE
                       AIR SEA DIR/SP/G            HT/PER
                 (UTC) (F)     (DEG/KT/KT) (MB)    (FT/S)
64 S DAUPHIN ISL 1159   62 70   10/ 17/ 21 1019.3

$$




USA.gov is the U.S. government's official web portal to all federal, state and local government web resources and services.